Location: Aulnoy
(48.8410°N, 3.0967°E)
Time: 21:47:56
(UTC+00:00)

Resurs 01 Rocket - Pass Details

Date: 09 February 2023
Orbit: 632 x 643 km, 97.9° (Epoch: 21 March)

Event Time Altitude Azimuth Distance (km) Brightness Sun altitude
Exits shadow 19:40:30 17° 1° (N) 1,655 3.8 -27.1°
Drops below altitude 10° 19:41:32 10° 357° (N) 2,052 4.3 -27.2°
Sets 19:43:48 0° 351° (N) 2,967 5.3 -27.6°
